Location: Goettingen
(51.5300°N, 9.9433°E)
Time: 11:36:16
(UTC+02:00)

ISS - Pass Details

Date: 19 May 2025
Orbit: 416 x 419 km, 51.6° (Epoch: 18 May)

Event Time Altitude Azimuth Distance (km) Brightness Sun altitude
Rises 23:51:08 0° 283° (WNW) 2,362 0.6 -16.1°
Reaches altitude 10° 23:53:24 10° 272° (W) 1,496 -0.7 -16.2°
Enters shadow 23:56:12 27° 215° (SW) 830 -2.6 -16.3°
